顯示廣告
隱藏 ✕
※ 本文為 MindOcean 轉寄自 ptt.cc 更新時間: 2016-10-11 14:15:06
看板 WomenTalk
作者 vicky142327 (咩咩頭)
標題
 [討論] 有沒有懷念或推薦的電腦單機版遊戲

時間 Fri Oct  7 20:17:20 2016


現在有了手機後幾乎都不常開電腦了
最近在整理以前的光碟發現了好多懷念的遊戲
像是那時候超喜歡的美少女夢工場、小魔女帕妃系列、明星志願、愛神餐館、發明工坊、模擬市民、仙劍奇俠傳……

我真的超愛這些養成遊戲的
但現在好像越來越少電腦遊戲了
電視廣告都是一堆手遊,很多都玩不久就膩了QQ
不然就是恢復體力要時間、成長要時間,真的超沒耐心
不知道女孩有沒有推薦的遊戲、不論是現在的還是懷舊的都ok
真的好想念以前電腦單機版遊戲的時光喔……

--
--
※ 發信站: 批踢踢實業坊(ptt.cc), 來自: 115.82.82.118
※ 文章代碼(AID): #1Nzv9I8U (WomenTalk)
※ 文章網址: https://www.ptt.cc/bbs/WomenTalk/M.1475842642.A.21E.html
moriyako: 阿貓阿狗1F 10/07 20:18
littlemiss: 發明工坊真的好好玩2F 10/07 20:20
  真的超好玩~1.2代都入手~!!!

willow: 宇峻出版的新絕代雙驕、楚留香新傳我大概玩了10次以上吧XD3F 10/07 20:20
gio8562: 泡泡龍 紅色警戒 美少女夢工場 夢幻西餐廳4F 10/07 20:24
gn00093006: 鍊金術士艾莉5F 10/07 20:25
susuqi: 世紀帝國6F 10/07 20:26
verphy: 小叮噹版大富翁..紅色警戒7F 10/07 20:27
testutw 
testutw: 夢幻西餐廳8F 10/07 20:27
axdrt052: 大宇雙劍9F 10/07 20:28
gio8562: 啊還有哈利波特的遊戲 很有趣~10F 10/07 20:28
iamGILI: 瘋狂搖搖杯11F 10/07 20:29
partyzoo: 覺代雙驕  仙劍奇俠傳12F 10/07 20:29
cathy1113: 絕代雙驕系列還有仙劍13F 10/07 20:31
lett1219: burger shop 作速食的遊戲 長大後終於買了14F 10/07 20:31
mag1021: 百戰小旅鼠15F 10/07 20:31
facenook: 喜歡軒轅劍 除了天之痕以外16F 10/07 20:32
bonniechu: 美少女夢工廠,明星志願17F 10/07 20:32
QuantumHsia: 仙劍1,阿貓阿狗,夢幻西餐廳,大富翁3and418F 10/07 20:33
nagisaK: 同級生19F 10/07 20:33
sindy1988: 夢幻奇緣20F 10/07 20:34
maye: 仙劍客棧,買了遊戲結果現在電腦不支援...orz21F 10/07 20:35

  超能體會這種心情!!之前換WIN7時,一堆XP的遊戲都掰掰了QQ

iamwind7954: 天之痕RRRRRRRRRR22F 10/07 20:35
chenww: 軒轅劍3!!!!!! 你絕對會愛上塞特 另再推絕代雙驕2&3 可玩23F 10/07 20:35
chenww: 雙主角
yjlee0829: 明星志願 同名手遊根本...25F 10/07 20:36

  沒想到Y大也懂我的心情..
  手遊版根本另一種神作

Gusteau: 風雲 伊蘇之書26F 10/07 20:38
water1228: 絕代雙驕和明星志願!27F 10/07 20:38
fly168: 暗黑破壞神2、魔獸爭霸328F 10/07 20:39
isaa: 虛擬人生!!!29F 10/07 20:40
snowpluto: 天之痕!經典呀!30F 10/07 20:42
KimSoHyon: 信長之野望31F 10/07 20:47
k1314520illy: 小魔女蕾妮特神作阿…32F 10/07 20:47

  真的!!!蕾妮特超傲嬌的XDDD整個系列都好好玩

kop291: 虛擬人生 天之痕 美少女夢工廠 便利商店 聖誕小公公33F 10/07 20:48
Lahti: 絕代雙嬌 仙劍奇俠傳34F 10/07 20:48
kop291: 夢幻西餐聽35F 10/07 20:48
yeu0319: 美少男夢工廠!alfagame的免費遊戲!很有意思!36F 10/07 20:49
MayDream: 仙劍1、大富翁4、虛擬人生!!!37F 10/07 20:49
darkagesgaga: 金庸群俠傳38F 10/07 20:49
crocodile214: 阿貓阿狗39F 10/07 20:49
kop291: 溫泉物語 (現在有繁中手機版!!!40F 10/07 20:49

  載了阿阿阿
  同公司的冒險村物語也超讚的!!!整個廢寢忘食

OwO1103: 明星志願!41F 10/07 20:52
jameshcm: 波斯王子(1989, not 2008)42F 10/07 20:53
chelsea9467: 仙劍客棧!!一直叫靈兒煮飯哈哈哈43F 10/07 20:54
pennyea618: 軒轅劍沒有之一44F 10/07 20:59
abree726: 絕代雙驕45F 10/07 21:00
abree726: 對還有仙劍客棧也超好玩XD
tingyufish: 推文好懷念 當年宇峻出的我必買47F 10/07 21:01
jessicalynn: 絕對是新絕對雙嬌呀!!!!48F 10/07 21:01
yang88: 百鬼夜宴49F 10/07 21:01
abree726: 宇峻的遊戲真的超好玩50F 10/07 21:02
yukiaandme: 絕對是便利商店!51F 10/07 21:03
jessicalynn: 我到現在還在玩 絕代雙嬌三 已經從1300的精裝版 買到52F 10/07 21:03
jessicalynn: 現在168兩片光碟兩光版了 還是好好玩
yang88: 夢幻蛋糕屋54F 10/07 21:03
s7133jeremy: 仙劍阿55F 10/07 21:04
Audien: 踩地雷 超好玩56F 10/07 21:04
treasurebag: 卡哇伊小貓咪...57F 10/07 21:05
thenorth: 金庸群俠轉58F 10/07 21:12
yoshanhuang: 神雕俠侶 天之痕 虛擬人生 仙劍客棧59F 10/07 21:14
zzztut: 便利商店跟美少女夢工廠60F 10/07 21:15
popo2006po: 我覺得CM3D2還挺不錯的欸61F 10/07 21:15
ou6694: 絕對是紅色警戒 到現在還會跟我爸一起玩哈哈哈62F 10/07 21:17
m36987a: 金錢戰爭!!!63F 10/07 21:17
Temper0415: 牧場物語64F 10/07 21:19
mixuan: Ib65F 10/07 21:20
RaiGend0519: 天汁痕66F 10/07 21:20
skeric: 皮卡丘打排球67F 10/07 21:21
bochi91: 炎龍騎士團2!!! 外傳!!!68F 10/07 21:21
ashkaze: 卡哇伊小貓咪!!!! 好懷念!69F 10/07 21:23
lalastarstar: LF2  幻想三國70F 10/07 21:23
lalastarstar: 36樓的那個系列都超好玩的!!
dinayogi11: 亞瑪蘭斯 ,精靈幻境72F 10/07 21:28
qq1217: 新絕代雙嬌啊啊73F 10/07 21:30
beaglelover: 便利商店~74F 10/07 21:32
tsaishr77: 天!!!之!!!痕!!!75F 10/07 21:35
kinhb2my: 天地劫76F 10/07 21:38
acpupu: 推文明5 現在全擴充的版本正在0.8折特價中77F 10/07 21:41
ym10119211: 風雲78F 10/07 21:43
dayaju: 天之痕 絕代雙驕79F 10/07 21:45
Jojam: 超級想念勇者泡泡龍!!!!現在怎麼找都找不到QQQQQQ80F 10/07 21:49
wang961726: 世紀帝國81F 10/07 21:52
nuga: 軌跡系列82F 10/07 21:54
yuenblack: 超時空英雄傳XD83F 10/07 21:55
※ 編輯: vicky142327 (61.70.211.71), 10/07/2016 22:02:24
szuchi0912: 絕對是仙劍,沒有之一。84F 10/07 21:57
missmilk: 瘋狂搖搖杯85F 10/07 21:58
mxsonly: 阿貓阿狗是神作!最喜歡跑去別人家裡翻箱倒櫃XD 原PO提的86F 10/07 21:59
mxsonly: 很多也都很喜歡
goodsnk: 瘋狂醫院88F 10/07 22:04
yui1993: 世紀帝國89F 10/07 22:05
motley: 新絕代雙嬌,楚留香新傳 以前單機遊戲模式比較簡單反而耐90F 10/07 22:08
motley: 玩
kamoin8957: 古文明霸王傳92F 10/07 22:11
deutyi: 這種國產game回憶也只有六七八年級有了。。。。93F 10/07 22:14
louuuise: 開羅系列還有模擬市民,模擬市民又要出新資料片啦啦啦94F 10/07 22:14
keyas0403: 懷念彩虹冒險95F 10/07 22:19
jack821215: 笑傲江湖 三國群英傳1 好想玩笑傲江湖QAQ96F 10/07 22:21
chinikip99: 仙劍+197F 10/07 22:24
tpeserena: 皮卡丘打排球 虛擬人生 大富翁98F 10/07 22:24
ts7520935: 夢幻西餐廳99F 10/07 22:28
jean5220: 仙劍一100F 10/07 22:29
agreerga: kutar101F 10/07 22:30
bydhni: 便利商店沒有之一!!!102F 10/07 22:30
chyng1126: 超愛牧場物語!103F 10/07 22:31
agreerga: http://imgur.com/ngq8lMN104F 10/07 22:34
[圖]
 
yms1202: 仙劍奇俠傳DOS版!玩好多次都不膩XD105F 10/07 22:38
victoria1111: 雪人兄弟106F 10/07 22:38
Kai1216: 越看推文越想哭 好懷念QQ107F 10/07 22:39
qqquen: 三劍就20款了吧 楚留香 神鵰俠侶108F 10/07 22:39
yeeting: 俠盜獵車手 仙劍1 都破不了關阿~~~109F 10/07 22:39
exile51423: 少女魔法師2110F 10/07 22:41
angeline0321: 櫻花大戰111F 10/07 22:41
thejackys: 閃子彈112F 10/07 22:46
zhaojin: 仙劍客棧!但遊戲片不見了,想買但沒mac版… 還有暗黑破113F 10/07 22:47
zhaojin: 壞神,經典!最近很愛的是stardew valley,跟牧場物語很
zhaojin: 像,但更耐玩
huahae: 天之痕 虛擬人生116F 10/07 22:50
zzzshiuan: 便利商店、大富翁4!!117F 10/07 22:50
docoke: 聖誕小公公!!超級好玩 http://i.imgur.com/bOBtZAW.jpg118F 10/07 22:51
[圖]
 
jajoy: 霹靂奇俠傳 泡泡龍 絕代雙嬌119F 10/07 22:52
yuhsuan92: 風色幻想120F 10/07 22:52
docoke: 便利商店、大富翁4+1!!以前每天玩~~121F 10/07 22:52
kop291:  http://i.imgur.com/XM1Qh5A.jpg 冒險村物語也有繁中喔122F 10/07 22:53
[圖]
 
kop291:  嘻嘻123F 10/07 22:53
angelawoon: Hello kitty 25週年的光碟遊戲啊啊啊,可惜不見了124F 10/07 22:58
bebequeena: 借發問,請問現在哪裡還能下載或是購買便利商店??真125F 10/07 22:58
bebequeena: 的超想玩QQ
radbull5569: 虛擬人生、便利商店、絕代雙驕、美少女夢工廠、阿貓127F 10/07 22:59
radbull5569: 阿狗 以前有這些遊戲就好開心哦
almondchoco: 明星志願!129F 10/07 23:02
shanenaboats: 世紀帝國2 大富翁4 模擬市民 新絕代雙驕130F 10/07 23:04
annnnvn: 瘋狂農場131F 10/07 23:06
kop291: 當時還很喜歡尼奧寵物!132F 10/07 23:07
evelyn0320: 美少女夢工廠超棒的(時代的眼淚133F 10/07 23:09
ocf951753: 我很愛玩牧場物語ㄟ134F 10/07 23:15
gio8562: 牧場物語 我晚上還會把野狗用石頭圍住XD135F 10/07 23:17
rokuya: 絕代雙驕,軒轅劍136F 10/07 23:27
sun0331: 好想再玩天之痕喔…137F 10/07 23:36
shinnymoon: 絕代雙驕玩了有10次以上138F 10/07 23:42
feimu: 好多說的都好懷念啊!!! 尤其是卡哇伊小貓咪 還有夢幻蛋糕139F 10/07 23:53
feimu: 屋~
ella6232: 非常好色,這算嗎XDD 我小時候超愛玩的說141F 10/07 23:55
keirafly: 明星志願142F 10/07 23:55
shapeskerae: 愛神餐館 大愛!!!143F 10/07 23:56
lys0227: 天之痕!!!144F 10/07 23:56
kop291: 偷問有人買過天之痕手機版嗎?請問270值得買嗎?  XD145F 10/08 00:03
menqyeu: 宇俊的都好好玩!!!!146F 10/08 00:04
gangsters: 推絕代雙驕147F 10/08 00:09
ddeh4416: 新絕代雙驕 仙劍148F 10/08 00:18
jenny91729: 天之痕 仙劍 夢幻西餐廳 夢幻遊樂園 明星志願149F 10/08 00:18
a0912096896: 軌跡系列150F 10/08 00:20
ylhd: 明星志願 / 便利商店151F 10/08 00:21
beams156: 鍊金術士艾利、美少女夢工廠、中華客棧、虛擬人生  好想152F 10/08 00:21
beams156: 再玩一次啊~~~
illution666: 遠征奧德賽、炎龍騎士團2、便利商店154F 10/08 00:36
newsoulth: 惡靈古堡155F 10/08 00:44
pionc: 月藍156F 10/08 00:45
jhj914: 推一個冷門的「小小馬蓋先」157F 10/08 00:51
jhj914: http://i.imgur.com/tiumYlX.jpg
[圖]
 
shizukiyu: 仙劍 軒轅劍 古劍159F 10/08 01:01
reyoo: 小朋友齊打交160F 10/08 01:03
LII1201: 天之痕161F 10/08 01:04
pillmedicine: 無人島物語 大航海時代162F 10/08 01:04
quinten: 幻想三國 (>﹏<) 超喜歡163F 10/08 01:07
kop291: 馬蓋先我也有玩!!!164F 10/08 01:16
kop291: 還有一個 猴島小英雄!!!!
wlcaroline: 光榮、宇竣、大宇、漢堂166F 10/08 01:18
ba7ba7ba7ba7: 有個養貓的遊戲讓我很懷念(windows98時期),背景是167F 10/08 01:21
ba7ba7ba7ba7: 一個可以放用具的櫃子,還有老鼠洞會跑出老鼠,可以
ba7ba7ba7ba7: 拿油漆幫老鼠或貓塗顏色,但我忘記是什麼遊戲了,也
ba7ba7ba7ba7: google不到名稱
ifu0403: 夢遊先生171F 10/08 01:25
doravigenlee: 絕對是世紀帝國172F 10/08 01:32
vip0828: 明星志願173F 10/08 01:38
mikeneko: 黑暗之心  雖然很短但印象非常深刻的動作遊戲174F 10/08 01:39
cargo: 我好想玩泡泡龍 QQ175F 10/08 01:39
j4ijp: 速食英雄~~智冠的很多都不錯玩176F 10/08 01:39
QQmouse: 無人島物語 惡靈古堡177F 10/08 01:42
RITABAO: 仙劍、煉金術士艾莉、大富翁4178F 10/08 01:50
Arlaozar: 軒轅劍三:雲和山的彼端、鍊金術士瑪莉179F 10/08 01:52
givgi456: 虛擬人生 瘋狂搖搖杯180F 10/08 02:20
sheep2214: 模擬城市啊 當市長超好玩的~~181F 10/08 02:20
nb0216: 虛擬人生 ~天尊182F 10/08 02:21
baby830307: 軒轅劍3、天之痕、新絕代雙驕、楚留香新傳、仙劍奇俠183F 10/08 02:25
baby830307: 傳、明星志願、夢幻蛋糕屋這些都超好玩~~~~~
Armaiti: 牛蛙的快樂天堂和杏林也瘋狂185F 10/08 02:27
supee6957: 阿貓阿狗 明星志願 軒轅劍 泡泡龍 大富翁186F 10/08 02:41
frida03: 牧場物語!!187F 10/08 02:42
pkian: 絕代雙驕以前玩到會背了XD這系列超好玩!188F 10/08 02:59
tappp: 勇敢小伊達~~~~189F 10/08 03:07
rupples409: 仙劍系列190F 10/08 03:16
lisasa: 以前的國產遊戲都超耐玩的XD 今年推薦俠客風雲傳前傳~191F 10/08 03:26
what357159: 仙劍啊當然 十里坡劍神耶192F 10/08 03:33
yuan0723: 鍊金術士艾莉、明星志願、美少女夢工廠、聖誕任務193F 10/08 03:48
fox377: 瘋狂搖搖杯194F 10/08 03:59
xangro: 推undertale,喜愛rpg的不能錯過195F 10/08 04:21
xangro: to the moon,音樂好聽又催淚
KY: 瘋狂醫院 頗A的 可是好喜歡197F 10/08 05:28
trayman: 夢幻蛋糕屋@@198F 10/08 05:35
f20262002: 明星志願(還特地買光碟收藏)美少女夢工廠 瘋狂搖搖杯199F 10/08 05:49
f20262002:  夢幻西餐廳 便利商店
linemi: 推文說的遊戲我幾乎都玩過QQ201F 10/08 07:24
ssshiuan: 杏林醫院202F 10/08 08:02
blue1725: 大富翁 便利商店203F 10/08 08:07
ts00022381: 幻想三國誌204F 10/08 08:12
toothfairy: 幾乎玩過+1 好懷念205F 10/08 09:34
tt2020830: 幻想三國志 明星志願 神奇寶貝三國志206F 10/08 09:44
rongwu0830: 便利商店 虛擬人生 勇者泡泡龍207F 10/08 09:48
byon1009: 推宇峻系列 再推個聖女之歌系列208F 10/08 09:53
sinbaji: 煉金術士瑪莉、艾莉209F 10/08 10:04
kay242433: 明星志願每一代都玩!210F 10/08 10:28
tangmystyle: 俠盜獵車手211F 10/08 10:41
namtad: 天之痕212F 10/08 10:42
HeliosPlus: 宇峻系列沒有之一!!213F 10/08 11:05
elsa1239: 古墓奇兵第三代!笑傲江湖~不過當初買不到外傳讓我難過214F 10/08 11:09
elsa1239: 超久的!
ONCEupon: 夢幻西餐廳.便利商店.美少女夢工廠!!!216F 10/08 12:28
minicat0501: 軒轅劍3/風雲217F 10/08 14:13
hello333555: 軌跡系列都很好玩218F 10/08 15:06
x81u3moon: 模擬樂園!!!(可以造水塘把遊客淹死XDDDD219F 10/08 16:03
lazydeer: 明星志願2 夢幻西餐廳 便利商店~220F 10/08 16:17
kuluga: 發明工坊 因為我是百合控XD221F 10/08 16:45
starry1508: 天之痕、仙劍、虛擬人生、夢幻遊樂園、便利商店…222F 10/08 16:57
joyce410: 阿貓阿狗啊!223F 10/08 17:36
bbs00000: 大富翁4,紅色警戒2,惡靈古堡2,風色幻想224F 10/08 17:45
HK97: 時空魔域 ARPG類225F 10/08 19:32
aries07: 牧場物語!! 好懷念喔226F 10/08 20:14
kimono1022: A大貓咪系列FLASH我好想要喔XD227F 10/08 20:49
xxxrecoil: RECOIL裝甲動員令228F 10/08 21:10
tiamokyo: 小時候愛玩便利超商229F 10/08 23:04
BlancoBT: 軒轅劍!!!!230F 10/08 23:55
gsinin: 虛擬人生231F 10/09 03:50
kitohuang: 天之痕QQ232F 10/09 06:34
smiletouch: 美少女夢工廠 便利商店 阿拉丁 獅子王 仙劍 溫泉物語233F 10/09 22:56
jay86319: 牧場物語啊啊啊!!234F 10/10 04:36
madera: 戰國美少女!!235F 10/10 13:01

--
※ 看板: WomenTalk 文章推薦值: 0 目前人氣: 0 累積人氣: 864 
分享網址:
r)回覆 e)編輯 d)刪除 M)不收藏 ^x)轉錄 同主題: =)首篇 [)上篇 ])下篇